SCP
-0 -0 -0 -0 -0 -0 -0 -0 -0 -0 0 -0 -0 -0 0 0 0 0 -0 -0 -0 -0 -0 -0 -0 0 0 1 0 0 0 0 0 0 0 0 0 0 0 0 0 0 0
-0 -0 -0 -0 -0 -0 -0 -0 -0 -0 -0 -0 0 0 0 0 -0 0 -0 -0 -0 -0 -0 -0 -0 0 0 0 1 1 0 0 0 0 0 0 0 0 0 0 0 0 0
-0 -0 -0 -0 -0 -0 -0 -0 -0 -0 -0 0 -0 0 0 0 0 0 -0 -0 -0 -0 -0 -0 0 0 0 0 1 1 0 0 0 0 0 0 0 0 0 0 0 0 0
-0 -0 -0 -0 -0 -0 -0 -0 -0 -0 -0 -0 -0 -0 -0 0 0 -0 -0 -0 -0 -0 0 0 1 1 1 1 1 1 0 0 0 0 0 1 0 0 0 0 0 0 0
-0 -0 -0 -0 -0 -0 -0 -0 -1 -1 -0 -1 -0 -0 0 0 -0 -0 -0 0 0 0 1 1 1 2 2 2 2 0 0 0 0 0 0 0 0 0 0 0 0 0 0
-0 -0 -0 -0 -0 -0 -0 -0 -1 -1 -1 -1 -1 -0 -0 -0 0 0 0 0 0 1 1 0 1 1 0 0 1 1 0 1 1 0 0 0 0 0 0 0 0 0 0
-0 -0 -0 -0 -0 -0 -0 -0 -1 -1 -1 -1 -1 -1 -0 -0 -0 0 0 0 0 1 1 1 3 2 1 1 1 1 0 0 0 0 0 0 0 0 0 0 0 0 0
-0 -0 -0 -0 -0 -0 -0 -0 -1 -2 -1 -1 -1 -0 -0 -0 0 0 0 1 1 1 1 1 2 2 1 1 1 1 0 0 0 0 0 0 0 0 0 0 0 0 0
-0 -0 -0 -0 -0 -0 -0 -0 -0 -1 -2 -1 -1 -1 -1 -0 0 0 1 0 1 1 2 2 1 1 1 1 1 0 0 1 1 0 0 0 0 0 0 0 0 0 0
0 0 -0 -0 -0 -0 -0 -0 -0 -1 -1 -1 -1 -1 -1 -1 -0 0 0 1 1 3 3 3 1 1 1 1 1 0 1 1 0 0 0 0 0 0 0 0 0 0 0
0 0 0 -0 -0 -0 -0 -0 -0 -0 -1 -1 -0 -1 -1 -1 -0 0 1 2 2 5 3 2 1 1 1 1 1 1 1 0 0 0 0 0 0 0 0 0 0 0 0
0 0 0 0 -0 -0 -0 -0 0 0 0 1 1 0 -0 0 1 1 2 2 3 4 4 2 3 2 2 1 1 1 1 0 0 0 0 0 0 0 0 0 0 0 0
0 0 0 0 0 0 0 0 0 0 1 1 1 2 2 2 2 3 4 3 4 6 4 3 4 1 2 1 1 1 0 0 0 0 0 0 0 0 0 0 0 0 0
0 0 0 1 1 1 1 1 1 1 1 1 2 2 2 3 2 4 5 4 7 5 4 4 3 2 2 1 1 1 0 0 0 0 0 0 0 0 0 0 0 0 0
0 0 0 1 2 2 2 1 2 2 2 3 2 1 2 1 2 4 4 4 5 5 6 3 3 2 2 1 1 1 0 0 0 0 0 0 0 0 0 0 0 0 0
0 0 0 1 1 1 1 3 3 3 3 3 2 1 2 2 3 3 3 3 4 4 4 2 3 3 2 0 0 0 0 0 0 0 0 0 0 0 0 0 0 0 0
0 0 0 1 2 2 3 2 2 3 4 3 2 2 3 4 4 3 4 3 5 5 4 5 3 2 2 0 0 0 0 0 0 0 0 0 0 0 0 0 0 0 0
0 0 1 1 2 2 3 5 4 4 4 3 3 4 4 4 3 2 3 4 4 5 5 4 2 2 1 0 0 0 0 0 0 0 0 0 0 0 0 0 0 0 0
0 0 0 2 2 2 4 6 4 4 4 4 5 3 3 2 1 1 3 3 5 7 6 3 2 2 1 0 0 0 0 0 0 0 0 0 0 0 0 0 0 0 0
0 0 2 3 3 4 3 6 6 5 5 5 4 3 1 0 1 2 3 7 9 6 4 2 2 2 2 0 0 0 0 0 0 0 0 0 0 0 0 0 0 0 0
2 2 2 3 3 5 6 7 7 7 5 5 5 3 2 2 2 3 6 6 5 5 7 2 3 2 0 0 0 0 0 0 0 0 0 0 0 0 0 0 0 0 0
3 2 3 7 7 7 8 8 8 8 8 6 4 3 3 4 5 5 5 4 3 4 4 3 1 1 1 0 0 0 0 0 0 0 0 0 0 0 0 0 0 0 0
3 4 3 4 5 5 7 10 11 8 5 4 6 6 9 4 4 3 3 4 3 4 3 1 1 1 1 0 0 0 0 0 0 0 0 0 0 0 0 0 0 0 0
1 2 2 3 5 4 5 6 5 5 6 6 4 2 3 2 2 1 1 4 5 3 1 1 1 1 1 0 0 0 0 0 0 0 0 0 0 0 0 0 0 0 0
1 1 1 1 2 4 6 6 5 4 2 2 2 3 2 2 2 0 0 2 0 0 1 1 2 1 1 0 0 0 0 0 0 0 0 0 0 0 0 0 0 0 0
0 0 0 0 0 1 1 2 1 1 1 2 1 1 1 3 2 0 0 0 0 0 0 0 0 0 0 0 0 0 0 0 0 0 0 0 0 0 0 0 0 0 0
Wind_Speed_500mb
43 45 45 43 42 40 40 39 39 39 36 32 29 26 24 22 23 22 24 24 21 19 19 13 13 12 12 19 21 22 25 24 24 30 33 27 17 14 18 27 18 22 16
46 48 49 48 47 45 44 43 42 42 41 35 33 29 26 25 24 24 26 26 25 24 22 20 15 16 14 18 19 24 20 21 22 20 28 27 25 14 33 15 26 17 30
52 53 54 54 52 51 50 49 48 46 44 41 34 33 32 33 28 32 31 31 30 29 25 22 18 19 17 20 25 19 21 24 21 25 15 19 23 40 11 24 21 34 31
54 56 58 58 58 56 52 52 51 52 48 49 40 42 34 35 31 29 26 27 28 28 25 23 21 21 20 26 13 17 35 27 22 21 18 25 28 34 41 34 39 40 38
58 61 63 62 59 56 56 53 56 56 53 52 50 45 44 34 31 28 30 34 29 30 29 32 28 33 29 24 30 32 36 28 20 21 23 24 28 31 38 52 55 48 41
58 59 59 60 61 60 59 57 63 65 60 61 55 57 50 42 36 37 35 33 29 37 42 39 35 39 27 33 34 34 32 29 29 28 24 26 28 35 39 45 49 55 61
63 65 67 69 70 70 68 64 68 70 68 67 65 61 60 57 51 44 41 38 34 37 38 41 43 40 35 35 42 38 30 24 26 23 24 23 25 30 36 43 52 53 55
67 69 71 72 74 73 76 75 72 77 74 73 71 69 62 57 54 50 46 41 41 41 45 46 46 41 37 36 47 34 19 16 15 25 23 24 25 30 35 41 51 59 58
65 72 72 75 75 77 81 83 79 76 80 76 75 73 67 65 56 53 55 50 46 43 50 54 51 44 39 39 40 22 17 12 19 18 23 22 28 31 37 40 46 56 62
54 63 72 79 79 76 76 77 77 81 80 78 77 74 72 70 67 64 63 52 50 56 46 54 52 53 42 38 35 17 18 22 24 18 22 28 27 35 36 43 45 49 59
45 51 64 76 81 77 77 77 78 79 80 83 71 70 73 74 72 71 76 71 65 60 56 51 53 51 49 38 29 21 20 20 20 20 21 27 33 37 42 43 45 51 56
18 28 46 64 75 81 77 77 78 80 81 81 78 75 71 70 65 68 68 70 67 60 51 51 50 53 45 34 21 17 17 18 19 21 24 28 33 40 41 41 50 53 57
20 29 30 51 69 74 77 78 77 76 73 68 71 71 69 69 68 67 67 58 58 54 49 52 46 50 45 29 20 18 18 19 21 22 25 30 34 43 44 50 43 49 56
20 22 27 40 55 65 71 72 72 66 65 64 63 59 62 61 58 57 53 50 59 59 37 49 42 47 39 27 17 19 18 18 20 23 26 31 37 43 51 40 50 50 66
19 24 30 37 44 53 64 65 66 61 63 63 60 55 46 43 41 46 45 45 51 50 46 44 32 32 30 19 20 18 17 17 21 24 28 31 43 44 38 48 48 65 60
32 28 33 41 47 49 54 56 60 62 60 59 54 46 41 37 40 40 41 42 41 44 52 31 31 30 19 25 31 23 16 17 20 27 31 37 41 35 49 45 50 52 54
31 29 35 41 46 49 51 51 49 54 57 51 42 39 35 44 40 37 41 35 44 45 38 33 28 21 18 28 32 26 28 23 20 26 31 36 36 39 42 52 50 46 46
38 30 29 39 44 46 47 46 46 49 47 45 41 44 43 37 34 35 32 37 38 40 34 33 27 26 24 27 26 26 26 27 24 26 32 34 32 37 47 52 50 45 44
40 28 29 37 42 47 50 53 50 48 47 46 46 43 38 34 27 26 32 32 37 40 40 29 25 24 23 27 26 23 21 18 23 27 31 31 33 43 52 50 49 47 48
37 24 27 34 41 46 49 56 55 51 47 44 41 36 27 16 21 25 31 39 47 44 29 31 27 23 25 25 21 21 17 17 24 26 26 36 39 47 54 47 45 46 52
16 21 26 32 39 46 45 45 46 43 40 35 32 29 25 21 18 24 31 37 34 33 33 27 25 22 26 21 21 21 16 15 19 21 21 27 43 48 40 38 39 47 49
26 30 38 37 35 40 46 42 41 40 39 29 28 25 17 20 29 35 30 27 21 17 27 26 26 22 26 29 22 22 20 22 25 19 19 34 37 36 31 33 39 37 37
38 38 43 45 39 39 46 47 40 40 37 35 30 24 26 24 28 27 31 29 26 20 22 25 22 28 22 22 23 20 16 18 22 19 31 31 31 31 27 33 40 34 34
44 45 48 53 45 40 40 41 38 36 28 22 17 19 21 28 30 34 35 35 23 33 28 30 27 24 22 14 13 7 6 17 18 25 20 28 28 31 32 26 26 28 30
48 48 48 50 47 44 40 33 31 25 20 20 20 22 24 25 36 33 33 27 31 34 29 26 23 24 26 27 21 19 10 11 20 16 14 15 18 20 22 23 25 29 32
51 49 45 48 44 39 37 35 31 27 27 24 20 16 17 27 26 31 35 33 34 36 31 22 22 24 26 28 20 13 9 11 14 12 13 13 16 19 20 22 25 28 34
Wind_Direction_500mb
198 197 198 199 199 200 202 202 203 210 204 209 213 219 220 224 229 233 234 233 237 237 249 248 271 297 305 296 338 328 333 341 331 334 333 337 316 326 322 320 320 314 318
200 198 199 199 202 203 204 205 204 207 210 208 209 211 213 224 233 234 237 240 236 242 249 250 254 277 288 305 292 316 334 337 324 328 331 335 338 334 325 309 319 314 313
202 199 200 202 203 205 206 207 207 208 210 197 210 211 210 224 227 235 236 239 240 238 241 242 261 269 300 312 307 309 321 325 344 323 328 337 325 322 328 317 304 309 307
203 203 204 206 206 208 208 207 210 208 214 206 208 214 217 222 230 235 239 238 236 234 235 238 237 260 271 283 300 299 318 328 324 322 313 301 299 312 314 311 308 312 309
201 204 205 207 209 209 209 210 213 215 210 220 209 219 220 226 224 226 230 232 233 232 223 229 248 265 266 272 296 309 312 318 302 306 305 307 307 304 304 309 314 311 310
201 204 206 207 209 210 211 211 216 220 219 222 222 214 219 218 218 224 227 230 234 242 246 238 248 254 269 279 294 305 311 307 305 310 312 309 311 311 310 308 307 306 310
203 203 203 205 207 208 209 211 216 226 223 222 227 225 224 224 218 210 228 225 232 232 241 246 250 263 265 280 295 299 304 301 304 306 300 306 305 306 308 307 307 306 306
206 206 206 206 208 208 209 210 213 222 230 224 226 230 230 226 229 229 223 234 234 239 250 253 252 259 267 292 298 295 297 289 304 281 292 304 311 310 310 308 307 305 304
208 210 209 209 208 209 209 211 212 218 230 230 229 231 235 231 227 228 239 229 233 236 245 253 262 263 263 292 294 290 297 275 284 282 292 298 308 314 310 312 306 304 302
209 213 212 212 210 211 211 212 215 215 223 231 232 232 235 237 235 229 230 231 232 239 237 255 258 264 267 288 296 280 282 271 286 276 280 294 304 308 315 309 306 302 300
209 216 216 216 214 213 213 213 214 217 218 229 224 229 234 237 239 236 239 244 245 237 244 254 270 266 268 277 289 277 261 256 272 270 289 297 309 314 315 315 312 308 308
298 257 221 216 212 214 214 215 214 216 220 226 226 229 231 236 235 241 239 241 243 238 242 244 261 258 258 271 266 260 249 259 260 272 286 302 307 309 318 315 313 310 312
270 265 246 214 207 210 212 212 214 216 216 219 226 223 226 231 235 241 243 237 239 235 236 237 255 260 259 267 264 252 252 254 261 275 291 301 311 312 312 312 315 314 314
249 260 238 214 204 204 209 210 211 212 213 215 218 221 224 227 235 237 236 238 233 239 233 227 250 230 254 266 245 240 249 250 269 279 296 307 314 306 319 318 318 319 316
238 249 227 212 205 202 204 207 207 208 209 209 211 216 217 219 221 227 230 237 237 236 232 235 217 227 252 247 229 234 246 260 272 289 298 308 301 332 310 320 311 319 321
257 244 227 213 207 208 206 202 200 200 200 206 205 203 201 203 212 219 220 229 235 234 229 227 225 233 235 240 243 239 241 263 284 294 301 306 322 306 307 303 311 324 334
259 237 225 216 211 205 200 198 193 191 191 192 191 188 187 197 208 212 217 220 223 227 239 216 215 221 206 231 248 251 257 269 277 287 297 307 309 315 304 316 324 332 326
257 270 220 211 209 201 196 189 187 183 179 178 179 183 192 197 199 202 206 211 220 223 209 204 203 197 206 234 245 248 257 274 286 290 299 304 314 309 315 321 326 330 332
262 264 238 205 198 195 187 180 178 175 173 172 182 184 181 175 176 188 196 202 196 190 196 192 199 202 212 237 236 246 264 284 289 294 299 307 310 303 319 320 325 329 333
241 238 204 193 188 188 182 173 172 169 168 171 172 170 164 174 191 192 198 198 194 187 185 200 197 197 214 232 229 246 265 284 287 301 317 309 308 313 317 318 325 325 333
183 179 185 181 177 172 174 170 163 160 160 159 162 161 166 172 181 174 186 189 182 187 179 187 186 207 209 227 233 252 270 275 283 303 317 307 301 311 318 319 322 326 331
148 156 154 155 159 162 158 156 150 147 145 150 145 143 156 173 171 185 189 176 182 198 176 185 188 195 217 221 240 259 275 289 298 318 310 314 323 327 335 334 325 328 339
140 145 143 141 145 149 148 135 135 139 138 144 147 171 164 197 180 177 181 181 186 196 193 212 208 198 207 236 240 258 281 296 314 309 331 340 347 352 354 334 349 346 348
138 139 138 134 133 133 137 134 135 139 141 143 142 160 173 185 182 188 185 181 199 207 209 212 205 213 204 219 262 285 345 338 348 327 336 352 353 353 351 347 343 342 358
137 138 136 128 126 124 121 123 126 134 131 129 137 158 170 181 175 184 187 197 193 205 204 204 217 216 191 201 206 188 207 285 317 346 358 344 345 350 348 348 350 350 5
136 134 131 126 123 125 125 127 124 122 119 114 121 143 161 187 200 207 212 210 211 226 214 197 188 197 200 224 236 229 277 333 7 31 3 352 356 354 352 354 354 356 6
Wind_Speed_850mb
43 45 45 43 42 40 40 39 39 39 36 32 29 26 24 22 23 22 24 24 21 19 19 13 13 12 12 19 21 22 25 24 24 30 33 27 17 14 18 27 18 22 16
46 48 49 48 47 45 44 43 42 42 41 35 33 29 26 25 24 24 26 26 25 24 22 20 15 16 14 18 19 24 20 21 22 20 28 27 25 14 33 15 26 17 30
52 53 54 54 52 51 50 49 48 46 44 41 34 33 32 33 28 32 31 31 30 29 25 22 18 19 17 20 25 19 21 24 21 25 15 19 23 40 11 24 21 34 31
54 56 58 58 58 56 52 52 51 52 48 49 40 42 34 35 31 29 26 27 28 28 25 23 21 21 20 26 13 17 35 27 22 21 18 25 28 34 41 34 39 40 38
58 61 63 62 59 56 56 53 56 56 53 52 50 45 44 34 31 28 30 34 29 30 29 32 28 33 29 24 30 32 36 28 20 21 23 24 28 31 38 52 55 48 41
58 59 59 60 61 60 59 57 63 65 60 61 55 57 50 42 36 37 35 33 29 37 42 39 35 39 27 33 34 34 32 29 29 28 24 26 28 35 39 45 49 55 61
63 65 67 69 70 70 68 64 68 70 68 67 65 61 60 57 51 44 41 38 34 37 38 41 43 40 35 35 42 38 30 24 26 23 24 23 25 30 36 43 52 53 55
67 69 71 72 74 73 76 75 72 77 74 73 71 69 62 57 54 50 46 41 41 41 45 46 46 41 37 36 47 34 19 16 15 25 23 24 25 30 35 41 51 59 58
65 72 72 75 75 77 81 83 79 76 80 76 75 73 67 65 56 53 55 50 46 43 50 54 51 44 39 39 40 22 17 12 19 18 23 22 28 31 37 40 46 56 62
54 63 72 79 79 76 76 77 77 81 80 78 77 74 72 70 67 64 63 52 50 56 46 54 52 53 42 38 35 17 18 22 24 18 22 28 27 35 36 43 45 49 59
45 51 64 76 81 77 77 77 78 79 80 83 71 70 73 74 72 71 76 71 65 60 56 51 53 51 49 38 29 21 20 20 20 20 21 27 33 37 42 43 45 51 56
18 28 46 64 75 81 77 77 78 80 81 81 78 75 71 70 65 68 68 70 67 60 51 51 50 53 45 34 21 17 17 18 19 21 24 28 33 40 41 41 50 53 57
20 29 30 51 69 74 77 78 77 76 73 68 71 71 69 69 68 67 67 58 58 54 49 52 46 50 45 29 20 18 18 19 21 22 25 30 34 43 44 50 43 49 56
20 22 27 40 55 65 71 72 72 66 65 64 63 59 62 61 58 57 53 50 59 59 37 49 42 47 39 27 17 19 18 18 20 23 26 31 37 43 51 40 50 50 66
19 24 30 37 44 53 64 65 66 61 63 63 60 55 46 43 41 46 45 45 51 50 46 44 32 32 30 19 20 18 17 17 21 24 28 31 43 44 38 48 48 65 60
32 28 33 41 47 49 54 56 60 62 60 59 54 46 41 37 40 40 41 42 41 44 52 31 31 30 19 25 31 23 16 17 20 27 31 37 41 35 49 45 50 52 54
31 29 35 41 46 49 51 51 49 54 57 51 42 39 35 44 40 37 41 35 44 45 38 33 28 21 18 28 32 26 28 23 20 26 31 36 36 39 42 52 50 46 46
38 30 29 39 44 46 47 46 46 49 47 45 41 44 43 37 34 35 32 37 38 40 34 33 27 26 24 27 26 26 26 27 24 26 32 34 32 37 47 52 50 45 44
40 28 29 37 42 47 50 53 50 48 47 46 46 43 38 34 27 26 32 32 37 40 40 29 25 24 23 27 26 23 21 18 23 27 31 31 33 43 52 50 49 47 48
37 24 27 34 41 46 49 56 55 51 47 44 41 36 27 16 21 25 31 39 47 44 29 31 27 23 25 25 21 21 17 17 24 26 26 36 39 47 54 47 45 46 52
16 21 26 32 39 46 45 45 46 43 40 35 32 29 25 21 18 24 31 37 34 33 33 27 25 22 26 21 21 21 16 15 19 21 21 27 43 48 40 38 39 47 49
26 30 38 37 35 40 46 42 41 40 39 29 28 25 17 20 29 35 30 27 21 17 27 26 26 22 26 29 22 22 20 22 25 19 19 34 37 36 31 33 39 37 37
38 38 43 45 39 39 46 47 40 40 37 35 30 24 26 24 28 27 31 29 26 20 22 25 22 28 22 22 23 20 16 18 22 19 31 31 31 31 27 33 40 34 34
44 45 48 53 45 40 40 41 38 36 28 22 17 19 21 28 30 34 35 35 23 33 28 30 27 24 22 14 13 7 6 17 18 25 20 28 28 31 32 26 26 28 30
48 48 48 50 47 44 40 33 31 25 20 20 20 22 24 25 36 33 33 27 31 34 29 26 23 24 26 27 21 19 10 11 20 16 14 15 18 20 22 23 25 29 32
51 49 45 48 44 39 37 35 31 27 27 24 20 16 17 27 26 31 35 33 34 36 31 22 22 24 26 28 20 13 9 11 14 12 13 13 16 19 20 22 25 28 34
Wind_Direction_850mb
198 197 198 199 199 200 202 202 203 210 204 209 213 219 220 224 229 233 234 233 237 237 249 248 271 297 305 296 338 328 333 341 331 334 333 337 316 326 322 320 320 314 318
200 198 199 199 202 203 204 205 204 207 210 208 209 211 213 224 233 234 237 240 236 242 249 250 254 277 288 305 292 316 334 337 324 328 331 335 338 334 325 309 319 314 313
202 199 200 202 203 205 206 207 207 208 210 197 210 211 210 224 227 235 236 239 240 238 241 242 261 269 300 312 307 309 321 325 344 323 328 337 325 322 328 317 304 309 307
203 203 204 206 206 208 208 207 210 208 214 206 208 214 217 222 230 235 239 238 236 234 235 238 237 260 271 283 300 299 318 328 324 322 313 301 299 312 314 311 308 312 309
201 204 205 207 209 209 209 210 213 215 210 220 209 219 220 226 224 226 230 232 233 232 223 229 248 265 266 272 296 309 312 318 302 306 305 307 307 304 304 309 314 311 310
201 204 206 207 209 210 211 211 216 220 219 222 222 214 219 218 218 224 227 230 234 242 246 238 248 254 269 279 294 305 311 307 305 310 312 309 311 311 310 308 307 306 310
203 203 203 205 207 208 209 211 216 226 223 222 227 225 224 224 218 210 228 225 232 232 241 246 250 263 265 280 295 299 304 301 304 306 300 306 305 306 308 307 307 306 306
206 206 206 206 208 208 209 210 213 222 230 224 226 230 230 226 229 229 223 234 234 239 250 253 252 259 267 292 298 295 297 289 304 281 292 304 311 310 310 308 307 305 304
208 210 209 209 208 209 209 211 212 218 230 230 229 231 235 231 227 228 239 229 233 236 245 253 262 263 263 292 294 290 297 275 284 282 292 298 308 314 310 312 306 304 302
209 213 212 212 210 211 211 212 215 215 223 231 232 232 235 237 235 229 230 231 232 239 237 255 258 264 267 288 296 280 282 271 286 276 280 294 304 308 315 309 306 302 300
209 216 216 216 214 213 213 213 214 217 218 229 224 229 234 237 239 236 239 244 245 237 244 254 270 266 268 277 289 277 261 256 272 270 289 297 309 314 315 315 312 308 308
298 257 221 216 212 214 214 215 214 216 220 226 226 229 231 236 235 241 239 241 243 238 242 244 261 258 258 271 266 260 249 259 260 272 286 302 307 309 318 315 313 310 312
270 265 246 214 207 210 212 212 214 216 216 219 226 223 226 231 235 241 243 237 239 235 236 237 255 260 259 267 264 252 252 254 261 275 291 301 311 312 312 312 315 314 314
249 260 238 214 204 204 209 210 211 212 213 215 218 221 224 227 235 237 236 238 233 239 233 227 250 230 254 266 245 240 249 250 269 279 296 307 314 306 319 318 318 319 316
238 249 227 212 205 202 204 207 207 208 209 209 211 216 217 219 221 227 230 237 237 236 232 235 217 227 252 247 229 234 246 260 272 289 298 308 301 332 310 320 311 319 321
257 244 227 213 207 208 206 202 200 200 200 206 205 203 201 203 212 219 220 229 235 234 229 227 225 233 235 240 243 239 241 263 284 294 301 306 322 306 307 303 311 324 334
259 237 225 216 211 205 200 198 193 191 191 192 191 188 187 197 208 212 217 220 223 227 239 216 215 221 206 231 248 251 257 269 277 287 297 307 309 315 304 316 324 332 326
257 270 220 211 209 201 196 189 187 183 179 178 179 183 192 197 199 202 206 211 220 223 209 204 203 197 206 234 245 248 257 274 286 290 299 304 314 309 315 321 326 330 332
262 264 238 205 198 195 187 180 178 175 173 172 182 184 181 175 176 188 196 202 196 190 196 192 199 202 212 237 236 246 264 284 289 294 299 307 310 303 319 320 325 329 333
241 238 204 193 188 188 182 173 172 169 168 171 172 170 164 174 191 192 198 198 194 187 185 200 197 197 214 232 229 246 265 284 287 301 317 309 308 313 317 318 325 325 333
183 179 185 181 177 172 174 170 163 160 160 159 162 161 166 172 181 174 186 189 182 187 179 187 186 207 209 227 233 252 270 275 283 303 317 307 301 311 318 319 322 326 331
148 156 154 155 159 162 158 156 150 147 145 150 145 143 156 173 171 185 189 176 182 198 176 185 188 195 217 221 240 259 275 289 298 318 310 314 323 327 335 334 325 328 339
140 145 143 141 145 149 148 135 135 139 138 144 147 171 164 197 180 177 181 181 186 196 193 212 208 198 207 236 240 258 281 296 314 309 331 340 347 352 354 334 349 346 348
138 139 138 134 133 133 137 134 135 139 141 143 142 160 173 185 182 188 185 181 199 207 209 212 205 213 204 219 262 285 345 338 348 327 336 352 353 353 351 347 343 342 358
137 138 136 128 126 124 121 123 126 134 131 129 137 158 170 181 175 184 187 197 193 205 204 204 217 216 191 201 206 188 207 285 317 346 358 344 345 350 348 348 350 350 5
136 134 131 126 123 125 125 127 124 122 119 114 121 143 161 187 200 207 212 210 211 226 214 197 188 197 200 224 236 229 277 333 7 31 3 352 356 354 352 354 354 356 6